Terug naar catalogus

THORAD AGENA D DEB

ActiefLEO
NORAD 5422·DEBRIS·🇺🇸 United States

Gelanceerd Apr 8, 1970 vanaf Vandenberg Space Force Base

Loading…

Volgende Passages (komende 24 uur)

TLE

VersSource: Space-Track

Epoch: Sep 13, 2026, 23:43 UTC

1 05422U 70025LA  26256.98858978  .00004430  00000-0  11588-2 0  9996
2 05422 100.0059  97.2464 0067279 113.3764 247.4519 14.48647418869842

Volg THORAD AGENA D DEB in realtime met AllMySat

Download on the App Store